Погода в Янгельском

Россия / Республика Башкортостан     53°15′19″N   58°47′35″E
темп.,
°C
ветер,
м/с
пор.,
м/с
влажн.,
%
обл.,
%
осадки,
мм/ч
давл.,
гПа
погр.,
м
9 марта, вт
вт923:00−6ююз6138690 0.0 1010379
02:00−6юз71683100 0.0 1008600
05:00−7юз71685100 0.0 1008600
08:00−7юз71584100 0.0 1008511
11:00−4юз6128382 0.0 1009925
14:00−2з4589100 0.1 1011575
17:00−3ю2394100 0.3 1010256
20:00−5ю4993100 0.3 1010208
10 марта, ср
ср1023:00−6ю4796100 0.3 1009211
02:00−6ю4796100 0.4 1006227
05:00−6ю4896100 1.1 1002305
08:00−6ю51095100 0.3 999443
11:00−5юз81083100 0.7 999755
14:00−7зюз8147740 0.0 10001157
17:00−9з7148152 0.0 10011126
20:00−15з7167952 0.0 1004626
11 марта, чт
чт1123:00−16з7158176 0.0 1005546
02:00−17з81481100 0.0 1007480
05:00−18зсз71387100 0.0 1009491
08:00−19зсз5985100 0.0 1011302
11:00−17зсз3582100 0.0 1014356
14:00−13зсз357897 0.0 1015542
17:00−13зсз478198 0.0 1017692
20:00−19зсз578219 0.0 1020106
12 марта, пт
пт1223:00−22зсз468210 0.0 102380
02:00−22зсз348430 0.0 102571
05:00−21з5108617 0.0 1026150
08:00−21з488813 0.0 1027158
11:00−14зсз613817 0.0 1027552
14:00−10зсз610730 0.0 1027825
17:00−10сз410770 0.0 1027423
20:00−15зсз48770 0.0 1029126
13 марта, сб
сб1323:00−17зсз34790 0.0 103264
02:00−18з34830 0.0 103341
05:00−19з33840 0.0 103420
08:00−20з23820 0.0 103420
11:00−14з12790 0.0 103497
14:00−9ююз11760 0.0 1033168
17:00−9ююв22870 0.0 103227
20:00−15зюз11880 0.0 103221